| time (UTC) | temp F | wind direction | speed MPH | gust MPH | rain 1hr in | rain 24hr in | rain mn in | humidity % | barometer mb |
| 20260903021505 | 63 | 165 | 2.0 | 6.0 | 0.00 | 0.03 | 0.03 | 88 | 1020.4 |
| 20260903021004 | 63 | 221 | 1.0 | 6.0 | 0.00 | 0.03 | 0.03 | 88 | 1020.4 |
| 20260903020503 | 63 | 186 | 2.0 | 6.0 | 0.00 | 0.03 | 0.03 | 88 | 1020.4 |
| 20260903020004 | 63 | 221 | 2.0 | 6.0 | 0.00 | 0.03 | 0.03 | 88 | 1020.6 |
| 20260903015504 | 63 | 229 | 2.0 | 7.0 | 0.00 | 0.03 | 0.03 | 88 | 1020.5 |
| 20260903015003 | 63 | 224 | 2.0 | 7.0 | 0.00 | 0.03 | 0.03 | 88 | 1020.6 |
| 20260903014511 | 63 | 204 | 2.0 | 6.0 | 0.00 | 0.03 | 0.03 | 88 | 1020.7 |
| 20260903014006 | 63 | 158 | 1.0 | 6.0 | 0.00 | 0.03 | 0.03 | 88 | 1020.6 |
| 20260903013507 | 63 | 195 | 3.0 | 6.0 | 0.00 | 0.03 | 0.03 | 88 | 1020.6 |
| 20260903013016 | 63 | 193 | 2.0 | 5.0 | 0.00 | 0.03 | 0.03 | 88 | 1020.7 |
| 20260903012505 | 63 | 207 | 2.0 | 4.0 | 0.00 | 0.03 | 0.03 | 88 | 1020.7 |
| 20260903012010 | 63 | 237 | 1.0 | 7.0 | 0.00 | 0.03 | 0.03 | 88 | 1020.9 |
| 20260903011520 | 63 | 238 | 3.0 | 7.0 | 0.00 | 0.03 | 0.03 | 87 | 1020.7 |
| 20260903011020 | 63 | 141 | 1.0 | 6.0 | 0.00 | 0.03 | 0.03 | 87 | 1020.4 |
| 20260903010515 | 63 | 207 | 2.0 | 6.0 | 0.00 | 0.03 | 0.03 | 87 | 1020.4 |
| 20260903010004 | 63 | 226 | 1.0 | 6.0 | 0.00 | 0.03 | 0.03 | 87 | 1020.4 |
| 20260903005504 | 63 | 202 | 2.0 | 6.0 | 0.00 | 0.03 | 0.03 | 87 | 1020.5 |
| 20260903005006 | 63 | 96 | 1.0 | 5.0 | 0.00 | 0.03 | 0.03 | 87 | 1020.6 |
| 20260903004507 | 63 | 221 | 1.0 | 6.0 | 0.00 | 0.03 | 0.03 | 86 | 1020.5 |
| 20260903004005 | 63 | 229 | 2.0 | 6.0 | 0.00 | 0.03 | 0.03 | 86 | 1020.7 |
| 20260903003504 | 63 | 124 | 2.0 | 4.0 | 0.00 | 0.03 | 0.03 | 86 | 1020.5 |
| 20260903003012 | 63 | 209 | 1.0 | 6.0 | 0.00 | 0.03 | 0.03 | 86 | 1020.4 |
| 20260903002510 | 64 | 178 | 2.0 | 6.0 | 0.00 | 0.03 | 0.03 | 85 | 1020.4 |
| 20260903002009 | 64 | 126 | 1.0 | 4.0 | 0.00 | 0.03 | 0.03 | 85 | 1020.3 |
| 20260903001518 | 64 | 166 | 1.0 | 4.0 | 0.00 | 0.03 | 0.03 | 85 | 1020.3 |
| 20260903001007 | 64 | 190 | 2.0 | 4.0 | 0.00 | 0.03 | 0.03 | 85 | 1020.4 |
| 20260903000509 | 64 | 165 | 0.0 | 3.0 | 0.00 | 0.03 | 0.03 | 84 | 1020.5 |
| 20260903000024 | 64 | 165 | 1.0 | 3.0 | 0.00 | 0.03 | 0.03 | 84 | 1020.6 |
| 20260902235514 | 64 | 166 | 0.0 | 3.0 | 0.00 | 0.03 | 0.03 | 84 | 1020.7 |
| 20260902235012 | 64 | 167 | 0.0 | 3.0 | 0.00 | 0.03 | 0.03 | 84 | 1020.8 |
| 20260902234512 | 64 | 140 | 0.0 | 3.0 | 0.00 | 0.03 | 0.03 | 83 | 1020.9 |
| 20260902234007 | 64 | 202 | 0.0 | 4.0 | 0.00 | 0.03 | 0.03 | 83 | 1020.9 |
| 20260902233504 | 65 | 188 | 1.0 | 4.0 | 0.00 | 0.03 | 0.03 | 83 | 1020.9 |
| 20260902233010 | 65 | 165 | 1.0 | 5.0 | 0.00 | 0.03 | 0.03 | 83 | 1021.0 |
| 20260902232506 | 65 | 162 | 2.0 | 5.0 | 0.00 | 0.03 | 0.03 | 82 | 1021.2 |
| 20260902232007 | 65 | 93 | 2.0 | 5.0 | 0.00 | 0.03 | 0.03 | 82 | 1021.4 |
| 20260902231523 | 65 | 271 | 1.0 | 6.0 | 0.00 | 0.03 | 0.03 | 81 | 1021.5 |
| 20260902231008 | 65 | 200 | 1.0 | 7.0 | 0.00 | 0.03 | 0.03 | 81 | 1021.5 |
| 20260902230508 | 65 | 179 | 2.0 | 7.0 | 0.00 | 0.03 | 0.03 | 81 | 1021.6 |
| 20260902230022 | 65 | 167 | 1.0 | 4.0 | 0.00 | 0.03 | 0.03 | 81 | 1021.6 |
| 20260902225510 | 65 | 181 | 1.0 | 6.0 | 0.00 | 0.03 | 0.03 | 80 | 1021.6 |
| 20260902225011 | 66 | 192 | 2.0 | 6.0 | 0.00 | 0.03 | 0.03 | 80 | 1021.6 |
| 20260902224525 | 66 | 112 | 0.0 | 6.0 | 0.00 | 0.03 | 0.03 | 80 | 1021.7 |
| 20260902224014 | 66 | 148 | 2.0 | 6.0 | 0.00 | 0.03 | 0.03 | 80 | 1021.6 |
| 20260902223512 | 66 | 151 | 2.0 | 6.0 | 0.00 | 0.03 | 0.03 | 79 | 1021.7 |
| 20260902223031 | 66 | 195 | 3.0 | 6.0 | 0.00 | 0.03 | 0.03 | 79 | 1021.9 |
| 20260902222507 | 66 | 166 | 2.0 | 4.0 | 0.00 | 0.03 | 0.03 | 79 | 1021.8 |
| 20260902222007 | 66 | 191 | 2.0 | 4.0 | 0.00 | 0.03 | 0.03 | 79 | 1021.9 |
| 20260902221516 | 66 | 145 | 1.0 | 4.0 | 0.00 | 0.03 | 0.03 | 79 | 1021.9 |
| 20260902221009 | 66 | 165 | 1.0 | 4.0 | 0.00 | 0.03 | 0.03 | 78 | 1022.0 |
| 20260902220507 | 67 | 158 | 2.0 | 6.0 | 0.00 | 0.03 | 0.03 | 78 | 1021.9 |
| 20260902220016 | 67 | 150 | 2.0 | 6.0 | 0.00 | 0.03 | 0.03 | 77 | 1021.9 |
| 20260902215508 | 67 | 190 | 1.0 | 5.0 | 0.00 | 0.03 | 0.03 | 77 | 1022.0 |
| 20260902215009 | 67 | 162 | 2.0 | 7.0 | 0.00 | 0.03 | 0.03 | 77 | 1021.9 |
| 20260902214523 | 67 | 116 | 2.0 | 7.0 | 0.00 | 0.03 | 0.03 | 77 | 1021.9 |
| 20260902214012 | 67 | 174 | 1.0 | 3.0 | 0.00 | 0.03 | 0.03 | 77 | 1021.9 |
| 20260902213511 | 67 | 181 | 1.0 | 4.0 | 0.00 | 0.03 | 0.03 | 77 | 1022.1 |
| 20260902213026 | 68 | 124 | 1.0 | 4.0 | 0.00 | 0.03 | 0.03 | 77 | 1022.2 |
| 20260902212517 | 68 | 132 | 2.0 | 4.0 | 0.00 | 0.03 | 0.03 | 77 | 1022.1 |
| 20260902212015 | 68 | 65 | 1.0 | 5.0 | 0.00 | 0.03 | 0.03 | 77 | 1022.0 |
| 20260902211529 | 68 | 199 | 0.0 | 5.0 | 0.00 | 0.03 | 0.03 | 77 | 1022.0 |
| 20260902211004 | 68 | 164 | 2.0 | 6.0 | 0.00 | 0.03 | 0.03 | 76 | 1022.0 |
| 20260902210505 | 68 | 222 | 2.0 | 6.0 | 0.00 | 0.03 | 0.03 | 76 | 1022.0 |
| 20260902210016 | 68 | 87 | 3.0 | 6.0 | 0.00 | 0.03 | 0.03 | 75 | 1022.0 |
| 20260902205501 | 68 | 154 | 2.0 | 6.0 | 0.00 | 0.03 | 0.03 | 75 | 1021.9 |
| 20260902205003 | 68 | 158 | 2.0 | 7.0 | 0.00 | 0.03 | 0.03 | 75 | 1021.9 |
| 20260902204504 | 68 | 79 | 3.0 | 7.0 | 0.00 | 0.03 | 0.03 | 75 | 1021.9 |
| 20260902204002 | 68 | 255 | 2.0 | 11.0 | 0.00 | 0.03 | 0.03 | 74 | 1022.0 |
| 20260902203502 | 68 | 139 | 4.0 | 11.0 | 0.00 | 0.03 | 0.03 | 74 | 1021.9 |
| 20260902203002 | 68 | 205 | 3.0 | 11.0 | 0.00 | 0.03 | 0.03 | 75 | 1022.0 |
| 20260902202503 | 68 | 118 | 3.0 | 7.0 | 0.00 | 0.03 | 0.03 | 75 | 1021.9 |
| 20260902202003 | 68 | 58 | 3.0 | 8.0 | 0.00 | 0.03 | 0.03 | 74 | 1021.9 |
| 20260902201509 | 68 | 91 | 3.0 | 11.0 | 0.00 | 0.03 | 0.03 | 74 | 1022.0 |
| 20260902201004 | 68 | 207 | 3.0 | 11.0 | 0.00 | 0.03 | 0.03 | 74 | 1022.4 |
| 20260902200503 | 68 | 188 | 2.0 | 7.0 | 0.00 | 0.03 | 0.03 | 74 | 1022.3 |
| 20260902200014 | 68 | 229 | 2.0 | 7.0 | 0.00 | 0.03 | 0.03 | 75 | 1022.3 |
| 20260902195504 | 68 | 134 | 1.0 | 6.0 | 0.00 | 0.03 | 0.03 | 75 | 1022.3 |
| 20260902195009 | 68 | 182 | 2.0 | 6.0 | 0.00 | 0.03 | 0.03 | 76 | 1022.4 |
| 20260902194513 | 68 | 191 | 2.0 | 7.0 | 0.00 | 0.03 | 0.03 | 76 | 1022.4 |
| 20260902194003 | 68 | 165 | 1.0 | 7.0 | 0.00 | 0.03 | 0.03 | 76 | 1022.4 |
| 20260902193503 | 68 | 146 | 1.0 | 6.0 | 0.00 | 0.03 | 0.03 | 77 | 1022.5 |
| 20260902193004 | 68 | 166 | 3.0 | 6.0 | 0.00 | 0.03 | 0.03 | 77 | 1022.5 |
| 20260902192502 | 68 | 54 | 2.0 | 5.0 | 0.00 | 0.03 | 0.03 | 77 | 1022.6 |
| 20260902192004 | 68 | 112 | 1.0 | 4.0 | 0.00 | 0.03 | 0.03 | 77 | 1022.6 |
| 20260902191505 | 68 | 137 | 1.0 | 5.0 | 0.00 | 0.03 | 0.03 | 77 | 1022.6 |
| 20260902191003 | 68 | 162 | 1.0 | 6.0 | 0.00 | 0.03 | 0.03 | 77 | 1022.7 |
| 20260902190504 | 68 | 181 | 2.0 | 6.0 | 0.00 | 0.03 | 0.03 | 77 | 1022.7 |
| 20260902190009 | 68 | 222 | 0.0 | 5.0 | 0.00 | 0.03 | 0.03 | 78 | 1022.7 |
| 20260902185505 | 68 | 127 | 2.0 | 6.0 | 0.00 | 0.03 | 0.03 | 78 | 1022.6 |
| 20260902185004 | 68 | 165 | 2.0 | 6.0 | 0.00 | 0.03 | 0.03 | 77 | 1022.7 |
| 20260902184513 | 68 | 167 | 0.0 | 7.0 | 0.00 | 0.03 | 0.03 | 77 | 1022.7 |
| 20260902184006 | 68 | 161 | 1.0 | 7.0 | 0.00 | 0.03 | 0.03 | 77 | 1022.6 |
| 20260902183508 | 68 | 190 | 2.0 | 6.0 | 0.00 | 0.03 | 0.03 | 77 | 1022.5 |
| 20260902183014 | 68 | 149 | 2.0 | 7.0 | 0.00 | 0.03 | 0.03 | 77 | 1022.4 |
| 20260902182510 | 68 | 58 | 2.0 | 7.0 | 0.00 | 0.03 | 0.03 | 77 | 1022.2 |
| 20260902182002 | 68 | 148 | 3.0 | 7.0 | 0.00 | 0.03 | 0.03 | 78 | 1022.2 |
| 20260902181504 | 68 | 144 | 1.0 | 7.0 | 0.00 | 0.03 | 0.03 | 78 | 1022.2 |
| 20260902181003 | 68 | 160 | 1.0 | 6.0 | 0.00 | 0.03 | 0.03 | 78 | 1022.3 |
| 20260902180503 | 68 | 76 | 2.0 | 6.0 | 0.00 | 0.03 | 0.03 | 77 | 1022.5 |
| 20260902180014 | 68 | 176 | 2.0 | 6.0 | 0.00 | 0.03 | 0.03 | 77 | 1022.5 |
| 20260902175506 | 68 | 174 | 1.0 | 6.0 | 0.00 | 0.03 | 0.03 | 77 | 1022.6 |
| 20260902175006 | 68 | 164 | 3.0 | 6.0 | 0.00 | 0.03 | 0.03 | 77 | 1022.6 |
| 20260902174513 | 69 | 179 | 2.0 | 6.0 | 0.00 | 0.03 | 0.03 | 76 | 1022.6 |
| 20260902174007 | 69 | 214 | 2.0 | 6.0 | 0.00 | 0.03 | 0.03 | 76 | 1022.6 |
| 20260902173509 | 69 | 134 | 1.0 | 6.0 | 0.00 | 0.03 | 0.03 | 76 | 1022.5 |
| 20260902173014 | 69 | 182 | 0.0 | 6.0 | 0.00 | 0.03 | 0.03 | 75 | 1022.5 |
| 20260902172510 | 69 | 210 | 1.0 | 6.0 | 0.00 | 0.03 | 0.03 | 72 | 1022.7 |
| 20260902172010 | 69 | 167 | 2.0 | 6.0 | 0.00 | 0.03 | 0.03 | 71 | 1022.7 |
| 20260902171516 | 69 | 226 | 2.0 | 6.0 | 0.00 | 0.03 | 0.03 | 73 | 1022.7 |
| 20260902171008 | 69 | 59 | 3.0 | 6.0 | 0.00 | 0.03 | 0.03 | 74 | 1022.7 |
| 20260902170504 | 69 | 250 | 1.0 | 5.0 | 0.00 | 0.03 | 0.03 | 74 | 1022.7 |
| 20260902170005 | 68 | 177 | 2.0 | 8.0 | 0.00 | 0.03 | 0.03 | 74 | 1022.7 |
| 20260902165504 | 69 | 225 | 4.0 | 8.0 | 0.00 | 0.03 | 0.03 | 73 | 1022.8 |
| 20260902165003 | 69 | 188 | 3.0 | 7.0 | 0.00 | 0.03 | 0.03 | 74 | 1022.8 |
| 20260902164506 | 69 | 179 | 2.0 | 7.0 | 0.00 | 0.03 | 0.03 | 73 | 1022.8 |
| 20260902164003 | 69 | 174 | 3.0 | 8.0 | 0.00 | 0.03 | 0.03 | 74 | 1022.9 |
| 20260902163506 | 69 | 188 | 2.0 | 8.0 | 0.00 | 0.03 | 0.03 | 74 | 1022.9 |
| 20260902163012 | 68 | 251 | 2.0 | 6.0 | 0.00 | 0.03 | 0.03 | 74 | 1023.0 |
| 20260902162506 | 68 | 248 | 2.0 | 6.0 | 0.00 | 0.03 | 0.03 | 76 | 1023.2 |
| 20260902162012 | 68 | 148 | 2.0 | 6.0 | 0.00 | 0.03 | 0.03 | 76 | 1023.1 |
| 20260902161529 | 68 | 194 | 3.0 | 6.0 | 0.00 | 0.03 | 0.03 | 75 | 1023.0 |
| 20260902161012 | 68 | 165 | 0.0 | 5.0 | 0.00 | 0.03 | 0.03 | 78 | 1023.1 |
| 20260902160512 | 68 | 130 | 1.0 | 8.0 | 0.00 | 0.03 | 0.03 | 77 | 1023.1 |
| 20260902160019 | 68 | 204 | 3.0 | 8.0 | 0.00 | 0.03 | 0.03 | 77 | 1023.3 |
| 20260902155511 | 67 | 70 | 1.0 | 5.0 | 0.00 | 0.03 | 0.03 | 78 | 1023.4 |
| 20260902155002 | 67 | 189 | 1.0 | 7.0 | 0.00 | 0.03 | 0.03 | 79 | 1023.5 |
| 20260902154504 | 67 | 136 | 2.0 | 7.0 | 0.00 | 0.03 | 0.03 | 78 | 1023.7 |
| 20260902154003 | 67 | 148 | 1.0 | 6.0 | 0.00 | 0.03 | 0.03 | 78 | 1023.8 |
| 20260902153504 | 67 | 171 | 2.0 | 7.0 | 0.00 | 0.03 | 0.03 | 80 | 1023.7 |
| 20260902153012 | 67 | 74 | 0.0 | 7.0 | 0.00 | 0.03 | 0.03 | 80 | 1023.7 |
| 20260902152507 | 66 | 150 | 1.0 | 6.0 | 0.00 | 0.03 | 0.03 | 82 | 1023.6 |
| 20260902152006 | 66 | 200 | 2.0 | 6.0 | 0.00 | 0.03 | 0.03 | 82 | 1023.6 |
| 20260902151515 | 66 | 188 | 3.0 | 6.0 | 0.00 | 0.03 | 0.03 | 82 | 1023.6 |
| 20260902151010 | 66 | 171 | 1.0 | 6.0 | 0.00 | 0.03 | 0.03 | 85 | 1023.6 |
| 20260902150512 | 66 | 206 | 0.0 | 4.0 | 0.00 | 0.03 | 0.03 | 86 | 1023.8 |
| 20260902150023 | 65 | 129 | 1.0 | 4.0 | 0.00 | 0.03 | 0.03 | 85 | 1023.8 |
| 20260902145512 | 65 | 167 | 0.0 | 4.0 | 0.00 | 0.03 | 0.03 | 86 | 1023.9 |
| 20260902145012 | 65 | 144 | 0.0 | 4.0 | 0.00 | 0.03 | 0.03 | 86 | 1023.9 |
| 20260902144525 | 65 | 122 | 0.0 | 4.0 | 0.00 | 0.03 | 0.03 | 85 | 1023.9 |
| 20260902144012 | 65 | 245 | 1.0 | 4.0 | 0.00 | 0.03 | 0.03 | 85 | 1023.9 |
| 20260902143504 | 65 | 158 | 1.0 | 5.0 | 0.00 | 0.03 | 0.03 | 86 | 1023.7 |
| 20260902143010 | 65 | 184 | 2.0 | 5.0 | 0.00 | 0.03 | 0.03 | 88 | 1023.6 |
| 20260902142504 | 65 | 185 | 2.0 | 4.0 | 0.00 | 0.03 | 0.03 | 87 | 1023.5 |
| 20260902142004 | 64 | 87 | 1.0 | 4.0 | 0.00 | 0.03 | 0.03 | 89 | 1023.4 |
| 20260902141513 | 64 | 167 | 2.0 | 5.0 | 0.00 | 0.03 | 0.03 | 89 | 1023.5 |
| 20260902141008 | 64 | 224 | 2.0 | 5.0 | 0.00 | 0.03 | 0.03 | 89 | 1023.4 |
| 20260902140508 | 64 | 96 | 2.0 | 6.0 | 0.00 | 0.03 | 0.03 | 90 | 1023.3 |
| 20260902140020 | 63 | 117 | 2.0 | 6.0 | 0.00 | 0.03 | 0.03 | 90 | 1023.2 |
| 20260902135508 | 63 | 98 | 1.0 | 5.0 | 0.00 | 0.03 | 0.03 | 92 | 1023.0 |
| 20260902135012 | 63 | 72 | 1.0 | 6.0 | 0.00 | 0.03 | 0.03 | 93 | 1023.0 |
| 20260902134527 | 63 | 150 | 1.0 | 6.0 | 0.00 | 0.03 | 0.03 | 94 | 1022.9 |
| 20260902134013 | 62 | 169 | 1.0 | 4.0 | 0.00 | 0.03 | 0.03 | 94 | 1022.9 |
| 20260902133513 | 62 | 212 | 2.0 | 4.0 | 0.00 | 0.03 | 0.03 | 94 | 1022.8 |
| 20260902133031 | 62 | 173 | 1.0 | 4.0 | 0.00 | 0.03 | 0.03 | 94 | 1022.9 |
| 20260902132513 | 62 | 160 | 0.0 | 4.0 | 0.00 | 0.03 | 0.03 | 94 | 1022.8 |
| 20260902132013 | 61 | 135 | 1.0 | 4.0 | 0.00 | 0.03 | 0.03 | 94 | 1022.9 |
| 20260902131509 | 61 | 131 | 0.0 | 3.0 | 0.00 | 0.03 | 0.03 | 94 | 1023.0 |
| 20260902131006 | 61 | 103 | 0.0 | 3.0 | 0.00 | 0.04 | 0.03 | 94 | 1023.1 |
| 20260902130506 | 61 | 167 | 1.0 | 3.0 | 0.00 | 0.04 | 0.03 | 94 | 1023.1 |
| 20260902130015 | 61 | 213 | 1.0 | 3.0 | 0.00 | 0.05 | 0.03 | 94 | 1023.1 |
| 20260902125510 | 61 | 129 | 0.0 | 3.0 | 0.00 | 0.06 | 0.03 | 94 | 1023.0 |
| 20260902125010 | 61 | 169 | 1.0 | 3.0 | 0.00 | 0.06 | 0.03 | 94 | 1022.9 |
| 20260902124523 | 61 | 209 | 0.0 | 4.0 | 0.00 | 0.07 | 0.03 | 94 | 1023.0 |
| 20260902124011 | 61 | 113 | 0.0 | 4.0 | 0.00 | 0.08 | 0.03 | 94 | 1022.8 |
| 20260902123514 | 61 | 148 | 0.0 | 2.0 | 0.00 | 0.09 | 0.03 | 95 | 1022.9 |
| 20260902123026 | 61 | 146 | 0.0 | 0.0 | 0.00 | 0.09 | 0.03 | 95 | 1022.9 |
| 20260902122515 | 60 | 146 | 0.0 | 0.0 | 0.00 | 0.10 | 0.03 | 95 | 1023.0 |
| 20260902122012 | 60 | 146 | 0.0 | 0.0 | 0.00 | 0.11 | 0.03 | 95 | 1023.1 |
| 20260902121528 | 60 | 145 | 0.0 | 0.0 | 0.00 | 0.11 | 0.03 | 94 | 1023.2 |
| 20260902121014 | 60 | 145 | 0.0 | 0.0 | 0.00 | 0.12 | 0.03 | 94 | 1023.2 |
| 20260902120513 | 60 | 143 | 0.0 | 0.0 | 0.00 | 0.12 | 0.03 | 95 | 1023.3 |
| 20260902120012 | 60 | 143 | 0.0 | 0.0 | 0.00 | 0.13 | 0.03 | 94 | 1023.3 |
| 20260902115509 | 60 | 143 | 0.0 | 0.0 | 0.00 | 0.14 | 0.03 | 94 | 1023.4 |
| 20260902115006 | 60 | 165 | 0.0 | 0.0 | 0.00 | 0.15 | 0.03 | 94 | 1023.3 |
| 20260902114503 | 60 | 165 | 0.0 | 0.0 | 0.00 | 0.16 | 0.03 | 95 | 1023.3 |
| 20260902114006 | 60 | 102 | 0.0 | 0.0 | 0.00 | 0.17 | 0.03 | 94 | 1023.2 |
| 20260902113502 | 60 | 102 | 0.0 | 0.0 | 0.00 | 0.18 | 0.03 | 94 | 1023.2 |
| 20260902113005 | 60 | 102 | 0.0 | 0.0 | 0.00 | 0.19 | 0.03 | 95 | 1023.2 |
| 20260902112503 | 60 | 102 | 0.0 | 0.0 | 0.00 | 0.19 | 0.03 | 95 | 1023.1 |
| 20260902112004 | 60 | 102 | 0.0 | 0.0 | 0.00 | 0.20 | 0.03 | 95 | 1023.0 |
| 20260902111504 | 60 | 102 | 0.0 | 0.0 | 0.00 | 0.20 | 0.03 | 95 | 1023.0 |
| 20260902111004 | 60 | 102 | 0.0 | 0.0 | 0.00 | 0.20 | 0.03 | 95 | 1022.9 |
| 20260902110506 | 60 | 102 | 0.0 | 0.0 | 0.00 | 0.20 | 0.03 | 95 | 1023.0 |
| 20260902110009 | 60 | 102 | 0.0 | 0.0 | 0.00 | 0.20 | 0.03 | 95 | 1022.9 |
| 20260902105507 | 60 | 102 | 0.0 | 0.0 | 0.00 | 0.20 | 0.03 | 94 | 1022.9 |
| 20260902105010 | 60 | 102 | 0.0 | 0.0 | 0.00 | 0.20 | 0.03 | 95 | 1022.8 |
| 20260902104518 | 60 | 102 | 0.0 | 0.0 | 0.00 | 0.20 | 0.03 | 95 | 1022.7 |
| 20260902104009 | 60 | 102 | 0.0 | 0.0 | 0.00 | 0.20 | 0.03 | 95 | 1022.6 |
| 20260902103510 | 60 | 102 | 0.0 | 0.0 | 0.00 | 0.20 | 0.03 | 95 | 1022.5 |
| 20260902103019 | 60 | 102 | 0.0 | 0.0 | 0.00 | 0.20 | 0.03 | 95 | 1022.6 |
| 20260902102503 | 60 | 102 | 0.0 | 0.0 | 0.00 | 0.20 | 0.03 | 95 | 1022.5 |
| 20260902102003 | 60 | 102 | 0.0 | 0.0 | 0.00 | 0.20 | 0.03 | 95 | 1022.4 |
| 20260902101504 | 60 | 102 | 0.0 | 0.0 | 0.00 | 0.20 | 0.03 | 95 | 1022.3 |
| 20260902101004 | 60 | 102 | 0.0 | 0.0 | 0.00 | 0.20 | 0.03 | 94 | 1022.3 |
| 20260902100504 | 60 | 102 | 0.0 | 0.0 | 0.00 | 0.20 | 0.03 | 94 | 1022.3 |
| 20260902100008 | 60 | 102 | 0.0 | 1.0 | 0.00 | 0.20 | 0.03 | 94 | 1022.2 |
| 20260902095506 | 60 | 102 | 0.0 | 1.0 | 0.00 | 0.20 | 0.03 | 94 | 1022.1 |
| 20260902095005 | 60 | 102 | 0.0 | 0.0 | 0.00 | 0.20 | 0.03 | 94 | 1022.1 |
| 20260902094511 | 60 | 102 | 0.0 | 0.0 | 0.00 | 0.20 | 0.03 | 94 | 1022.1 |
| 20260902094007 | 60 | 102 | 0.0 | 0.0 | 0.00 | 0.20 | 0.03 | 94 | 1022.1 |
| 20260902093509 | 60 | 102 | 0.0 | 0.0 | 0.00 | 0.20 | 0.03 | 94 | 1022.1 |
| 20260902093016 | 60 | 102 | 0.0 | 0.0 | 0.00 | 0.20 | 0.03 | 94 | 1022.2 |
| 20260902092514 | 60 | 102 | 0.0 | 0.0 | 0.00 | 0.20 | 0.03 | 95 | 1022.2 |
| 20260902092011 | 60 | 102 | 0.0 | 0.0 | 0.00 | 0.20 | 0.03 | 94 | 1022.2 |
| 20260902091524 | 60 | 102 | 0.0 | 0.0 | 0.00 | 0.20 | 0.03 | 94 | 1022.2 |
| 20260902091002 | 60 | 102 | 0.0 | 0.0 | 0.00 | 0.20 | 0.03 | 94 | 1022.1 |
| 20260902090502 | 60 | 102 | 0.0 | 0.0 | 0.00 | 0.20 | 0.03 | 94 | 1022.1 |
| 20260902090006 | 60 | 102 | 0.0 | 0.0 | 0.00 | 0.20 | 0.03 | 94 | 1022.0 |
| 20260902085503 | 60 | 102 | 0.0 | 0.0 | 0.00 | 0.20 | 0.03 | 94 | 1021.9 |
| 20260902085003 | 60 | 102 | 0.0 | 0.0 | 0.00 | 0.20 | 0.03 | 94 | 1022.0 |
| 20260902084516 | 60 | 102 | 0.0 | 0.0 | 0.00 | 0.20 | 0.03 | 94 | 1022.0 |
| 20260902084004 | 61 | 102 | 0.0 | 0.0 | 0.00 | 0.20 | 0.03 | 94 | 1021.9 |
| 20260902083508 | 61 | 102 | 0.0 | 0.0 | 0.00 | 0.20 | 0.03 | 94 | 1021.9 |
| 20260902083015 | 61 | 102 | 0.0 | 0.0 | 0.00 | 0.20 | 0.03 | 94 | 1022.0 |
| 20260902082509 | 61 | 102 | 0.0 | 0.0 | 0.00 | 0.20 | 0.03 | 94 | 1022.1 |
| 20260902082012 | 61 | 102 | 0.0 | 0.0 | 0.00 | 0.20 | 0.03 | 94 | 1022.1 |
| 20260902081520 | 61 | 102 | 0.0 | 0.0 | 0.00 | 0.20 | 0.03 | 94 | 1022.1 |
| 20260902081010 | 61 | 102 | 0.0 | 0.0 | 0.00 | 0.20 | 0.03 | 94 | 1022.1 |
| 20260902080512 | 61 | 102 | 0.0 | 0.0 | 0.00 | 0.20 | 0.03 | 94 | 1022.1 |
| 20260902080026 | 61 | 102 | 0.0 | 0.0 | 0.00 | 0.20 | 0.03 | 94 | 1022.2 |
| 20260902075513 | 61 | 102 | 0.0 | 0.0 | 0.00 | 0.20 | 0.03 | 94 | 1022.2 |
| 20260902075003 | 61 | 102 | 0.0 | 0.0 | 0.00 | 0.20 | 0.03 | 94 | 1022.2 |
| 20260902074508 | 61 | 102 | 0.0 | 0.0 | 0.00 | 0.20 | 0.03 | 94 | 1022.2 |
| 20260902074005 | 61 | 102 | 0.0 | 0.0 | 0.00 | 0.20 | 0.03 | 94 | 1022.3 |
| 20260902073503 | 61 | 102 | 0.0 | 0.0 | 0.00 | 0.20 | 0.03 | 94 | 1022.3 |
| 20260902073010 | 61 | 102 | 0.0 | 0.0 | 0.00 | 0.20 | 0.03 | 94 | 1022.4 |
| 20260902072510 | 61 | 102 | 0.0 | 0.0 | 0.00 | 0.20 | 0.03 | 94 | 1022.3 |
| 20260902072011 | 61 | 102 | 0.0 | 0.0 | 0.00 | 0.20 | 0.03 | 94 | 1022.3 |
| 20260902071518 | 61 | 102 | 0.0 | 0.0 | 0.00 | 0.20 | 0.03 | 94 | 1022.3 |
| 20260902071010 | 61 | 102 | 0.0 | 0.0 | 0.00 | 0.20 | 0.03 | 94 | 1022.2 |
| 20260902070509 | 61 | 102 | 0.0 | 0.0 | 0.00 | 0.20 | 0.03 | 93 | 1022.1 |
| 20260902070023 | 61 | 102 | 0.0 | 0.0 | 0.01 | 0.20 | 0.03 | 94 | 1022.1 |
| 20260902065511 | 61 | 102 | 0.0 | 0.0 | 0.02 | 0.20 | 0.03 | 93 | 1022.1 |
| 20260902065011 | 61 | 102 | 0.0 | 0.0 | 0.02 | 0.20 | 0.03 | 93 | 1022.1 |
| 20260902064528 | 61 | 102 | 0.0 | 0.0 | 0.03 | 0.20 | 0.03 | 93 | 1022.1 |
| 20260902064018 | 61 | 102 | 0.0 | 0.0 | 0.03 | 0.20 | 0.03 | 93 | 1022.1 |
| 20260902063505 | 61 | 102 | 0.0 | 0.0 | 0.03 | 0.20 | 0.03 | 93 | 1022.1 |
| 20260902063009 | 61 | 102 | 0.0 | 0.0 | 0.03 | 0.20 | 0.03 | 93 | 1022.1 |
| 20260902062504 | 61 | 102 | 0.0 | 0.0 | 0.03 | 0.20 | 0.03 | 93 | 1022.0 |
| 20260902062004 | 61 | 102 | 0.0 | 0.0 | 0.03 | 0.20 | 0.03 | 93 | 1022.0 |
| 20260902061514 | 61 | 102 | 0.0 | 0.0 | 0.03 | 0.20 | 0.03 | 93 | 1022.1 |
| 20260902061007 | 61 | 102 | 0.0 | 2.0 | 0.03 | 0.20 | 0.03 | 93 | 1022.1 |
| 20260902060507 | 61 | 101 | 0.0 | 2.0 | 0.03 | 0.20 | 0.03 | 93 | 1021.9 |
| 20260902060018 | 61 | 260 | 0.0 | 0.0 | 0.02 | 0.19 | 0.02 | 93 | 1021.9 |
| 20260902055513 | 61 | 260 | 0.0 | 0.0 | 0.01 | 0.18 | 0.01 | 92 | 1021.8 |
| 20260902055012 | 61 | 261 | 0.0 | 0.0 | 0.01 | 0.18 | 0.01 | 92 | 1021.8 |
| 20260902054523 | 61 | 261 | 0.0 | 0.0 | 0.00 | 0.17 | 0.00 | 92 | 1021.8 |
| 20260902054013 | 62 | 261 | 0.0 | 0.0 | 0.00 | 0.17 | 0.00 | 92 | 1021.8 |
| 20260902053514 | 61 | 261 | 0.0 | 0.0 | 0.00 | 0.17 | 0.00 | 92 | 1021.7 |
| 20260902053028 | 61 | 261 | 0.0 | 0.0 | 0.00 | 0.17 | 0.00 | 92 | 1021.8 |
| 20260902052515 | 62 | 261 | 0.0 | 0.0 | 0.00 | 0.17 | 0.00 | 92 | 1021.7 |
| 20260902052004 | 62 | 261 | 0.0 | 0.0 | 0.00 | 0.17 | 0.00 | 92 | 1021.7 |
| 20260902051510 | 62 | 261 | 0.0 | 0.0 | 0.00 | 0.17 | 0.00 | 92 | 1021.6 |
| 20260902051010 | 62 | 261 | 0.0 | 0.0 | 0.00 | 0.17 | 0.00 | 91 | 1021.5 |
| 20260902050508 | 62 | 261 | 0.0 | 0.0 | 0.00 | 0.17 | 0.00 | 92 | 1021.5 |
| 20260902050016 | 62 | 261 | 0.0 | 0.0 | 0.00 | 0.17 | 0.00 | 91 | 1021.4 |
| 20260902045515 | 62 | 261 | 0.0 | 0.0 | 0.00 | 0.17 | 0.00 | 92 | 1021.4 |
| 20260902045008 | 62 | 261 | 0.0 | 0.0 | 0.00 | 0.17 | 0.00 | 91 | 1021.3 |
| 20260902044524 | 62 | 261 | 0.0 | 0.0 | 0.00 | 0.17 | 0.00 | 91 | 1021.2 |
| 20260902044011 | 62 | 261 | 0.0 | 0.0 | 0.00 | 0.17 | 0.00 | 92 | 1021.1 |
| 20260902043513 | 62 | 261 | 0.0 | 0.0 | 0.00 | 0.17 | 0.00 | 92 | 1021.0 |
| 20260902043025 | 62 | 261 | 0.0 | 0.0 | 0.00 | 0.17 | 0.00 | 91 | 1020.7 |
| 20260902042514 | 61 | 261 | 0.0 | 0.0 | 0.00 | 0.17 | 0.00 | 91 | 1020.6 |
| 20260902042015 | 61 | 261 | 0.0 | 0.0 | 0.00 | 0.17 | 0.00 | 91 | 1020.5 |
| 20260902041546 | 61 | 261 | 0.0 | 0.0 | 0.00 | 0.17 | 0.00 | 91 | 1020.5 |
| 20260902041016 | 62 | 261 | 0.0 | 0.0 | 0.00 | 0.17 | 0.00 | 91 | 1020.4 |
| 20260902040516 | 62 | 261 | 0.0 | 0.0 | 0.00 | 0.17 | 0.00 | 91 | 1020.4 |
| 20260902040018 | 62 | 261 | 0.0 | 0.0 | 0.00 | 0.17 | 0.00 | 91 | 1020.4 |
| 20260902035508 | 62 | 261 | 0.0 | 0.0 | 0.00 | 0.17 | 0.17 | 91 | 1020.4 |
| 20260902035007 | 62 | 261 | 0.0 | 0.0 | 0.00 | 0.17 | 0.17 | 91 | 1020.4 |
| 20260902034520 | 62 | 261 | 0.0 | 0.0 | 0.00 | 0.17 | 0.17 | 91 | 1020.5 |
| 20260902034012 | 62 | 261 | 0.0 | 0.0 | 0.00 | 0.17 | 0.17 | 91 | 1020.4 |
| 20260902033510 | 62 | 261 | 0.0 | 0.0 | 0.00 | 0.17 | 0.17 | 91 | 1020.4 |
| 20260902033026 | 62 | 261 | 0.0 | 0.0 | 0.00 | 0.17 | 0.17 | 91 | 1020.4 |
| 20260902032513 | 62 | 261 | 0.0 | 0.0 | 0.00 | 0.17 | 0.17 | 90 | 1020.3 |
| 20260902032015 | 62 | 261 | 0.0 | 0.0 | 0.00 | 0.17 | 0.17 | 90 | 1020.3 |
| 20260902031527 | 62 | 261 | 0.0 | 0.0 | 0.00 | 0.17 | 0.17 | 90 | 1020.4 |
| 20260902031016 | 62 | 261 | 0.0 | 0.0 | 0.00 | 0.17 | 0.17 | 90 | 1020.4 |
| 20260902030516 | 62 | 261 | 0.0 | 0.0 | 0.00 | 0.17 | 0.17 | 89 | 1020.3 |
| 20260902030030 | 62 | 261 | 0.0 | 0.0 | 0.00 | 0.17 | 0.17 | 89 | 1020.2 |
| 20260902025506 | 62 | 261 | 0.0 | 0.0 | 0.00 | 0.17 | 0.17 | 89 | 1020.3 |
| 20260902025008 | 62 | 261 | 0.0 | 0.0 | 0.00 | 0.17 | 0.17 | 89 | 1020.3 |
| 20260902024516 | 62 | 261 | 0.0 | 0.0 | 0.00 | 0.17 | 0.17 | 89 | 1020.3 |
| 20260902024009 | 62 | 261 | 0.0 | 0.0 | 0.00 | 0.17 | 0.17 | 89 | 1020.2 |
| 20260902023510 | 62 | 261 | 0.0 | 0.0 | 0.00 | 0.17 | 0.17 | 89 | 1020.1 |
| 20260902023006 | 62 | 261 | 0.0 | 0.0 | 0.00 | 0.17 | 0.17 | 89 | 1020.2 |
| 20260902022503 | 62 | 261 | 0.0 | 0.0 | 0.00 | 0.17 | 0.17 | 89 | 1020.4 |
| 20260902022005 | 62 | 261 | 0.0 | 0.0 | 0.00 | 0.17 | 0.17 | 89 | 1020.4 |